Theta_e
316 316 317 316 316 316 315 319 323 325 326 326 327 328 329 329 330 328 327 327 326 324 321 318 316 316 316 317 319 322 323 323 323 322 322 322 322 322 321 321 322 321 322 323 322 323 323 324 324 321 327 328 320 316 313 315 320 327 336 331 325 325 325 325 323 320 319 319 318 314 315 322 320 312 313 317 326 332 330 331 330 327 327 327 326 327 332 335
317 316 317 316 315 315 314 317 323 325 325 325 326 328 328 329 329 328 328 327 326 324 321 318 316 316 315 316 317 319 321 321 322 322 322 322 323 323 321 322 323 323 322 323 323 322 326 327 324 324 335 336 324 321 317 313 319 329 329 325 329 332 325 322 322 319 316 316 317 315 314 318 319 316 316 317 328 334 333 332 332 333 331 329 328 330 334 334
317 317 317 315 314 314 313 315 322 324 322 321 322 326 328 328 328 327 328 326 326 324 321 318 317 317 316 317 317 318 319 319 321 322 322 322 324 322 321 323 324 325 324 324 323 322 325 327 323 327 339 340 329 327 321 314 319 322 322 325 329 327 322 320 319 318 315 313 316 316 313 314 315 316 317 320 330 335 335 332 331 335 336 334 330 329 333 334
317 317 317 315 314 313 312 314 320 323 322 321 321 324 326 327 327 328 327 326 326 324 322 319 317 318 318 318 317 318 317 317 320 321 322 323 323 322 322 324 324 326 325 323 324 322 323 323 323 331 338 339 334 333 325 317 316 315 320 326 322 317 317 318 318 317 315 311 314 317 314 313 314 314 317 322 327 331 333 330 328 333 336 335 330 329 333 334
317 318 317 315 313 313 313 315 320 322 323 323 322 322 324 326 327 328 327 326 326 324 322 319 318 319 318 318 318 317 316 318 320 318 321 322 322 323 323 324 325 325 324 323 323 323 324 322 326 334 337 338 337 335 327 318 312 312 318 319 316 314 313 314 314 315 314 311 314 317 315 314 313 313 320 323 320 323 326 328 327 328 332 333 330 329 332 334
316 317 317 316 314 312 313 316 320 321 323 324 323 321 322 325 327 327 327 327 326 325 323 320 319 319 319 319 318 316 316 320 321 317 320 321 321 323 323 324 324 325 324 324 323 322 325 324 327 335 338 338 334 333 328 318 312 313 316 314 313 311 311 313 312 313 314 312 315 318 314 314 314 314 319 322 319 317 316 317 319 323 326 329 329 329 332 334
315 316 316 317 315 312 311 316 318 318 321 324 324 323 322 325 327 328 327 327 326 325 324 321 320 320 320 319 317 316 316 319 320 318 320 319 320 322 323 324 324 325 324 323 323 325 328 327 330 332 336 336 331 331 327 319 314 314 315 314 313 310 310 313 311 312 313 313 315 314 311 313 316 315 317 321 319 315 315 310 309 317 325 327 329 330 332 334
314 314 313 313 314 313 311 313 314 314 320 324 324 324 324 325 326 327 327 327 326 325 324 321 321 321 320 318 317 317 316 318 320 320 320 318 320 321 323 324 323 324 324 324 324 325 328 329 330 329 334 334 328 327 321 320 319 315 317 315 313 312 311 311 310 312 313 313 312 309 312 315 314 313 316 320 318 318 323 317 314 321 327 328 330 330 332 333
314 314 313 312 312 313 312 312 313 315 320 322 322 323 324 324 326 327 327 327 326 325 323 321 321 321 320 317 316 317 316 317 320 321 320 319 320 322 323 323 323 323 323 325 322 324 329 329 329 328 333 330 327 326 320 325 323 313 314 314 312 313 312 311 312 314 314 313 310 311 315 314 309 310 314 315 316 323 332 332 327 328 330 329 330 329 331 332
314 313 311 311 312 313 312 313 316 318 318 319 319 322 324 324 326 327 326 327 325 325 323 322 322 320 319 317 316 318 316 316 321 322 321 319 319 321 322 322 323 323 322 324 322 325 329 327 325 325 330 328 328 327 320 324 322 312 312 312 312 313 312 312 313 313 313 312 310 313 316 313 308 310 315 313 318 326 338 340 331 331 333 330 329 329 330 331
314 312 309 309 311 312 311 313 317 319 319 318 318 320 322 323 324 327 326 326 325 324 323 322 321 320 318 317 316 318 318 317 321 322 320 319 320 321 322 322 322 323 322 323 323 324 324 322 320 323 330 328 326 326 322 321 318 314 313 316 316 313 312 313 314 313 312 311 312 312 313 313 309 312 316 311 317 325 338 340 331 331 333 328 329 329 328 330
313 310 309 307 308 310 311 311 314 318 319 317 317 317 319 322 323 326 327 326 325 323 323 321 320 319 318 317 317 318 318 319 321 322 320 319 321 321 321 322 322 322 323 322 322 323 322 321 322 329 330 326 326 327 326 322 317 314 312 317 320 315 315 314 312 314 312 311 312 311 312 314 311 313 313 311 319 328 336 338 330 330 331 328 329 328 328 329
311 309 308 307 307 309 311 310 311 317 319 316 316 315 317 321 321 324 326 325 325 323 322 321 320 319 319 319 318 318 319 321 323 322 320 320 321 321 321 322 322 322 322 323 322 321 322 322 324 329 324 323 327 325 325 322 319 318 313 315 318 319 319 314 310 310 311 312 312 311 315 320 317 313 310 317 326 332 338 340 327 326 330 328 329 328 329 328
310 308 308 307 306 307 310 311 310 315 319 318 316 315 316 318 319 322 325 325 324 323 321 320 320 319 319 320 319 319 321 323 325 323 320 320 321 321 321 322 322 322 321 323 322 320 322 321 320 322 322 324 324 321 327 327 324 324 321 318 317 320 321 317 313 311 311 311 310 311 315 319 318 315 310 318 328 330 336 342 327 325 328 328 329 328 328 328
310 309 308 307 307 307 308 310 312 314 318 320 318 316 316 316 316 319 324 325 324 322 321 320 320 319 320 321 318 320 323 323 324 323 321 321 321 321 321 322 322 321 322 322 322 322 321 321 323 324 324 323 322 325 333 332 328 326 327 327 319 317 318 316 315 314 312 311 309 311 315 316 315 316 307 311 324 328 329 338 328 324 326 327 328 327 328 328
311 309 309 308 307 307 307 308 312 314 316 319 319 316 315 315 318 319 322 324 323 322 321 321 320 319 321 322 319 321 324 323 323 323 322 322 322 320 319 321 321 321 322 321 322 322 321 323 326 325 324 324 326 330 332 330 329 327 327 330 321 316 315 312 314 314 312 312 310 310 315 317 313 312 305 308 323 328 326 335 330 323 324 325 327 327 328 327
311 310 309 309 308 307 307 307 309 312 315 318 319 317 314 316 321 319 320 324 323 322 321 321 320 319 321 320 321 324 324 323 322 321 321 322 322 320 319 318 318 320 321 321 322 322 323 324 324 324 325 327 327 329 332 330 330 327 323 323 319 314 313 313 314 312 310 311 312 312 312 315 314 312 308 309 322 329 327 330 329 325 324 324 326 327 327 327
311 310 309 309 308 307 307 307 308 310 315 318 319 319 316 317 319 317 320 324 323 321 321 320 320 321 321 320 322 325 324 322 321 320 320 321 321 321 320 318 318 320 322 323 324 324 324 323 324 327 327 326 324 327 333 332 331 329 323 322 320 315 313 312 312 311 310 311 313 313 311 312 313 313 311 310 319 332 331 326 327 327 326 325 325 326 327 327
310 310 309 309 309 308 307 308 307 309 313 316 319 320 319 318 317 317 320 323 324 324 324 322 321 323 322 319 321 324 323 322 321 320 318 319 320 320 319 319 320 322 325 326 326 324 323 324 325 329 328 325 324 326 330 329 329 327 322 321 319 316 313 310 310 311 310 310 312 313 312 313 312 312 312 311 316 327 328 324 326 325 324 325 325 325 326 326
309 309 308 308 309 309 308 307 307 308 310 314 318 320 320 319 319 320 319 322 325 325 325 323 321 322 321 319 321 323 323 321 321 318 317 318 319 319 319 320 322 324 326 327 327 324 323 327 328 329 328 325 325 325 323 322 320 319 318 317 316 315 314 310 310 312 309 310 313 313 312 312 312 312 312 311 312 318 321 323 323 321 321 323 325 325 325 325
308 309 308 307 308 309 308 307 306 307 309 312 315 319 321 318 319 319 319 322 324 322 324 322 320 321 320 320 322 322 322 322 320 317 317 319 319 321 321 321 325 327 326 325 324 322 324 330 329 326 326 324 324 321 316 316 315 316 319 318 316 314 313 311 310 311 310 310 314 314 311 311 311 310 311 311 311 314 317 319 320 319 318 317 320 324 323 323
307 308 308 308 308 308 308 307 306 305 309 312 312 315 318 317 317 317 318 323 322 320 322 320 319 321 320 320 322 321 322 323 320 317 316 318 321 323 322 322 327 326 324 323 324 324 326 330 328 325 324 322 321 317 314 316 316 319 321 320 319 315 313 314 311 311 310 310 314 315 311 312 312 310 311 310 311 312 312 314 316 317 318 316 316 318 319 321
306 307 307 307 306 307 308 308 306 304 307 312 313 314 316 315 314 316 319 322 321 319 321 321 320 322 321 321 322 321 322 322 321 318 316 319 323 322 321 324 325 323 322 325 326 327 328 328 325 323 321 320 320 318 319 320 318 320 321 320 319 315 314 316 312 311 312 311 312 312 311 312 311 311 311 311 310 310 311 312 312 313 316 316 313 312 314 318
306 306 306 306 305 306 306 306 305 304 306 311 313 313 315 316 313 315 319 320 319 317 317 319 319 321 322 321 321 321 322 321 321 318 316 319 322 320 322 324 323 323 324 325 325 326 327 325 322 321 320 320 319 319 320 321 320 318 318 320 320 315 312 313 312 312 313 312 310 310 314 314 313 314 314 312 310 308 309 310 311 311 311 311 309 310 311 312
305 306 305 305 306 305 305 305 304 303 305 310 313 312 314 317 315 315 319 318 317 316 315 318 320 320 320 320 321 320 321 321 319 319 317 319 321 320 322 321 322 325 324 324 325 325 324 321 320 321 321 319 318 319 319 321 322 318 317 317 316 314 311 310 312 312 313 316 312 311 317 319 321 321 317 314 312 310 310 309 310 310 308 307 308 309 309 309
304 304 305 305 306 305 305 307 306 304 307 310 311 311 313 316 316 316 317 317 318 316 315 319 321 321 320 321 320 319 322 320 317 317 317 319 319 320 322 320 320 325 323 322 324 324 322 318 319 322 321 319 319 318 318 320 322 321 319 314 312 312 311 311 313 312 315 319 314 310 314 319 320 320 318 316 314 313 311 309 310 309 307 308 308 309 308 308
304 303 304 304 305 306 307 308 308 307 309 311 310 310 313 315 316 315 316 318 319 316 314 317 319 320 321 320 319 320 324 320 316 317 315 318 318 318 322 321 320 322 321 322 326 324 320 317 319 322 321 320 320 319 318 319 322 323 317 312 312 312 312 315 313 312 316 318 313 311 313 315 315 315 317 314 313 315 312 311 311 309 308 308 307 307 307 307
304 303 303 304 305 306 307 308 310 310 310 310 309 311 314 315 315 314 316 319 318 313 314 316 315 316 319 320 319 320 321 319 320 318 313 314 316 316 321 321 321 322 319 323 328 322 317 318 320 321 322 321 321 321 318 318 321 319 313 311 312 312 314 317 316 315 315 313 313 314 312 313 316 319 317 311 312 317 315 314 314 312 311 309 307 307 307 307
304 304 303 304 305 306 306 307 309 310 311 310 310 313 314 315 315 314 317 319 316 312 314 316 315 316 319 321 319 319 318 319 322 318 312 312 312 314 319 318 319 320 318 322 325 320 317 318 318 319 321 321 322 320 316 317 317 312 312 313 314 316 317 318 319 317 313 312 315 315 313 313 317 323 320 313 312 315 315 316 316 314 311 309 308 308 307 307
304 304 303 304 306 307 307 307 307 309 310 312 313 313 314 315 316 318 320 319 315 314 315 316 317 318 320 321 320 319 319 319 318 315 313 313 312 312 315 315 316 318 318 320 320 317 315 315 315 317 320 320 319 316 314 317 315 311 314 317 317 322 322 322 323 316 313 316 315 314 315 313 315 320 318 314 316 316 316 316 315 314 312 311 309 308 308 308
303 304 304 304 306 306 307 308 307 306 307 311 314 313 314 316 317 321 321 316 315 314 314 316 318 319 320 321 321 320 319 318 315 314 315 316 316 316 317 317 318 319 320 319 316 313 314 315 316 315 316 317 314 313 315 317 314 314 321 320 319 323 324 326 326 317 316 319 313 310 313 312 314 317 315 316 317 316 315 315 316 316 316 315 312 308 308 309
303 303 304 305 305 306 306 307 307 305 304 309 313 313 315 317 318 322 319 315 317 316 313 316 319 319 320 321 321 320 319 317 314 314 315 317 318 319 320 320 320 322 323 320 316 315 315 315 315 313 312 314 314 314 317 318 318 321 323 321 320 323 324 324 322 318 318 318 311 309 312 312 314 315 315 316 315 314 313 313 315 316 316 317 315 313 312 311
302 303 304 304 305 306 306 307 308 307 305 308 313 313 315 318 320 322 318 315 318 316 313 316 318 319 320 321 321 319 319 317 314 314 315 317 319 319 319 318 319 324 324 318 317 317 317 315 314 313 312 313 315 316 316 316 318 319 318 318 322 323 324 323 320 319 321 318 312 310 311 314 317 316 314 314 314 316 315 312 312 313 314 314 313 312 313 312
302 303 304 304 305 306 306 306 307 308 308 310 314 315 315 317 319 320 317 315 315 314 313 316 317 319 321 321 320 319 319 316 314 315 316 317 319 319 317 317 318 321 320 318 318 319 321 320 315 314 314 315 315 316 317 315 315 315 314 318 322 321 323 324 322 321 323 319 313 310 313 320 321 317 314 312 312 314 313 311 310 309 309 309 308 309 312 313
302 303 303 303 305 305 305 306 306 308 311 311 313 315 315 317 319 319 316 313 313 313 314 316 317 319 320 319 319 318 318 316 314 315 316 317 320 319 317 317 317 318 319 320 320 319 322 321 314 312 314 314 315 316 315 315 316 315 315 317 319 321 323 322 319 317 318 318 314 311 316 321 319 315 312 310 312 313 313 312 310 310 309 308 310 313 315 315
302 302 303 304 304 304 305 306 306 307 310 311 311 314 316 317 317 318 316 313 313 314 315 317 317 319 320 319 319 318 316 316 315 315 315 317 319 318 317 317 315 317 320 321 320 320 322 319 311 310 312 312 315 316 314 317 318 314 314 315 315 318 321 318 316 313 312 316 317 313 315 317 316 315 313 313 314 314 313 312 311 311 310 309 314 316 314 314
302 302 303 304 304 304 305 306 306 307 309 310 311 312 314 315 312 313 314 313 314 315 316 318 317 318 320 319 319 318 316 316 316 316 316 317 318 317 317 316 314 315 318 319 320 319 320 317 310 311 314 311 313 315 313 315 317 314 314 315 313 314 317 318 319 315 312 316 318 315 314 315 316 318 316 314 314 314 315 315 314 312 310 311 315 314 313 317
302 302 303 304 303 303 305 306 306 307 308 309 310 311 312 313 310 311 314 314 315 316 318 319 317 316 319 321 319 317 317 317 317 317 316 317 318 316 315 316 314 314 315 318 322 319 319 319 312 310 314 310 310 314 314 313 313 313 315 314 314 318 318 316 318 319 317 317 320 319 314 311 314 319 317 312 314 316 315 314 314 313 312 312 313 313 316 322
302 302 303 303 303 304 305 306 306 307 307 309 310 311 311 311 309 310 313 314 315 317 319 319 317 316 317 320 319 317 317 318 317 317 317 317 318 316 314 316 314 313 313 316 321 318 319 323 315 310 312 311 310 314 316 314 311 311 312 312 314 317 317 317 318 320 320 318 321 323 317 315 316 318 318 314 314 316 314 314 315 313 311 312 314 316 320 323
302 302 303 303 303 304 305 306 306 307 308 309 310 310 311 311 310 309 312 315 315 317 319 317 317 318 318 319 319 317 318 318 316 318 318 317 317 315 313 314 314 313 313 315 319 318 316 320 318 312 310 312 314 314 315 315 311 310 311 313 313 312 314 318 318 317 318 319 321 321 319 323 322 315 314 314 315 317 315 316 316 313 311 314 317 319 320 320
302 303 304 304 304 305 306 306 306 307 309 310 310 310 309 310 311 311 312 314 314 316 318 317 318 319 318 319 319 317 318 317 316 318 318 316 316 315 313 312 313 312 312 315 317 318 318 316 315 313 311 313 314 313 315 315 312 311 313 313 314 313 314 318 319 315 314 317 321 318 316 322 323 315 311 311 313 315 314 313 315 314 313 316 317 315 316 317
302 303 305 305 305 305 306 307 307 308 309 310 311 311 310 309 311 312 312 314 314 314 314 316 317 318 318 320 319 318 318 316 316 317 317 316 316 316 313 311 311 311 313 316 315 316 319 316 313 313 313 313 312 310 313 315 313 313 314 314 314 314 313 317 320 316 312 313 316 316 313 315 320 319 314 310 309 311 311 311 314 314 311 312 313 311 312 316
303 304 306 306 305 306 307 307 308 308 309 311 312 312 310 309 310 312 313 314 314 315 315 315 316 316 318 319 318 318 318 316 316 317 316 316 314 313 312 310 311 311 313 316 314 314 317 315 313 314 314 313 313 310 310 313 313 313 314 314 314 314 313 316 319 317 315 314 313 314 314 315 319 324 323 318 313 314 313 310 313 315 310 308 310 309 311 316
303 305 307 307 306 306 307 308 309 308 309 312 312 311 309 309 309 311 313 314 314 316 317 316 316 316 317 317 317 318 317 317 318 316 316 317 313 310 310 310 312 312 312 315 315 316 319 316 314 316 315 316 318 314 312 312 312 314 315 313 313 315 314 314 314 313 315 316 314 314 316 317 321 325 326 322 316 316 317 313 312 315 313 311 311 309 311 315
303 305 308 308 307 307 307 308 309 309 310 311 311 311 310 309 309 309 312 314 314 315 317 317 316 316 315 316 317 317 316 318 318 315 315 316 312 309 310 311 312 311 313 316 316 318 320 316 314 317 317 318 319 317 316 315 312 315 318 314 313 315 313 313 314 313 314 316 314 313 315 319 322 318 314 315 313 312 314 315 314 314 314 314 312 310 312 314
304 306 309 308 307 307 308 307 307 309 310 311 310 310 310 311 310 310 312 314 313 313 317 317 316 315 315 316 317 316 316 316 317 315 314 314 311 308 308 311 311 312 315 319 319 319 319 315 314 317 317 317 319 317 317 316 313 314 316 314 313 314 313 315 317 315 314 315 314 313 313 316 318 314 312 318 318 315 315 315 315 314 312 312 310 309 311 313
304 307 309 309 308 308 308 308 308 308 310 311 310 310 310 311 311 311 312 313 312 313 314 314 315 315 316 316 317 317 316 315 316 315 313 313 311 308 309 311 311 314 317 317 317 319 319 315 316 317 316 317 321 319 316 314 314 314 314 314 314 313 313 315 316 315 315 316 315 314 312 312 313 314 318 321 319 316 317 315 312 310 310 311 311 312 315 316
304 307 309 310 311 310 308 309 309 309 310 311 311 310 310 311 312 312 313 311 310 312 313 314 314 315 316 316 317 317 316 314 315 314 312 312 311 309 309 310 311 314 316 314 313 315 317 316 316 315 315 318 320 320 317 315 314 314 314 313 313 313 313 314 315 314 315 317 316 315 314 313 311 312 315 317 314 310 311 312 310 310 314 317 320 324 327 326
304 307 308 309 311 310 308 309 310 310 310 311 311 311 311 311 312 313 312 310 309 311 313 314 314 315 316 315 316 317 316 315 315 314 312 311 311 310 309 310 311 312 313 313 312 313 315 316 315 315 315 315 316 317 316 316 316 315 315 313 312 313 313 313 314 314 314 315 315 317 317 314 313 314 313 314 314 310 309 311 311 312 317 322 327 331 333 334
305 308 308 308 310 310 308 309 309 310 311 311 311 311 311 311 312 312 312 311 311 312 313 314 314 314 315 315 316 316 315 315 316 313 311 311 311 310 310 311 312 311 311 312 311 313 317 315 312 315 315 313 313 315 315 316 317 317 316 314 312 312 312 313 314 314 315 315 313 315 316 313 312 313 312 312 312 311 311 312 311 310 312 318 325 328 329 333
304 307 308 309 311 310 308 309 309 310 311 311 311 311 311 311 312 312 312 311 312 313 313 314 314 314 314 315 315 315 315 316 317 314 311 311 311 311 312 312 311 310 312 312 312 315 320 316 311 315 317 312 312 315 316 315 315 316 317 315 313 312 312 312 313 313 314 315 314 314 314 314 313 312 311 312 313 312 312 312 310 309 310 315 320 321 322 327
302 305 308 310 312 311 308 309 310 310 311 311 311 311 312 311 311 312 312 312 311 313 314 314 314 314 314 315 315 316 317 318 316 312 311 311 312 313 313 311 310 311 312 314 315 318 321 317 313 316 317 312 310 315 317 315 315 316 316 315 313 313 313 312 313 313 313 313 315 314 314 315 315 313 312 313 313 313 313 312 312 310 311 313 315 315 316 317
Wind_Speed
33 32 30 33 35 36 33 27 25 25 28 34 36 35 39 41 41 42 41 40 39 38 39 39 37 35 32 27 25 22 20 19 16 15 13 14 16 14 18 18 15 16 14 12 12 10 6 8 11 8 7 8 5 5 5 3 3 3 3 3 1 2 3 4 6 5 3 2 2 3 4 6 4 2 2 1 3 3 1 1 2 1 2 3 3 1 17 25
31 32 30 33 36 37 35 31 27 25 24 30 36 37 37 42 44 42 41 41 40 39 39 38 37 35 33 30 26 23 19 15 10 9 14 16 14 14 19 19 15 15 16 15 15 14 9 6 11 13 6 3 3 5 4 4 4 3 2 2 2 3 3 4 4 4 2 3 1 3 2 4 5 4 4 2 1 2 2 3 2 1 3 1 1 11 22 25
29 31 31 32 35 37 37 34 30 25 24 27 32 36 38 41 45 44 42 42 40 39 39 38 37 34 33 32 27 25 17 9 4 8 17 17 13 17 20 19 16 15 16 15 16 16 14 12 15 13 4 3 2 3 3 4 3 1 3 2 2 3 3 2 3 4 4 1 2 1 1 2 4 3 4 3 1 1 4 5 3 5 5 3 6 14 20 24
28 28 28 29 34 38 39 37 33 27 25 25 27 32 37 39 43 45 44 43 41 39 40 39 37 34 33 31 28 25 14 4 3 12 20 19 14 19 20 17 16 12 13 17 17 18 21 20 16 9 4 3 3 2 3 4 2 1 2 2 2 0 2 2 2 5 4 0 0 1 2 2 3 2 2 5 4 3 7 7 9 9 8 9 10 14 18 24
26 25 24 28 35 40 40 38 33 27 25 27 27 28 34 38 41 45 44 43 43 40 39 39 37 34 33 31 28 24 13 2 7 18 24 21 17 18 20 17 14 12 15 20 21 21 22 19 12 6 3 3 3 3 2 3 2 1 0 1 1 2 2 4 3 3 3 1 2 3 3 3 2 1 3 8 6 6 6 7 9 8 9 12 14 17 18 22
25 23 22 25 32 40 42 37 31 26 24 26 28 26 30 36 40 45 45 43 42 40 40 39 37 34 33 30 28 24 14 3 6 21 27 23 19 16 18 17 15 15 17 22 22 19 16 13 10 5 3 3 2 2 1 3 2 2 2 2 1 2 1 4 3 3 2 0 2 3 3 2 3 4 2 8 9 5 3 5 7 6 11 14 15 18 16 17
24 21 21 23 27 35 40 39 33 26 22 24 27 26 28 33 37 42 44 45 42 41 40 40 37 34 33 29 25 19 12 5 2 18 28 25 21 18 18 19 18 15 17 21 18 12 10 9 8 6 5 3 2 3 2 2 1 1 2 3 2 1 3 5 4 4 3 4 5 2 1 3 7 5 1 7 10 3 2 4 4 7 14 17 15 17 16 17
22 18 17 20 24 29 35 38 35 28 23 24 26 26 28 31 37 42 44 44 43 42 41 41 38 35 35 31 20 10 9 6 1 16 28 26 23 22 22 21 17 14 16 19 16 11 8 8 8 6 5 3 3 4 2 2 0 1 2 3 4 3 5 6 6 6 5 6 4 1 3 5 7 4 1 8 10 4 2 1 4 8 12 14 13 15 15 16
18 16 15 16 21 27 30 32 32 30 25 24 24 26 28 30 36 43 46 45 44 44 42 43 40 37 36 27 14 6 13 11 3 17 29 26 26 26 24 21 16 14 14 16 19 16 7 4 6 6 5 4 3 3 1 3 2 2 2 4 5 6 7 6 5 4 3 4 1 3 5 5 3 1 4 8 6 4 3 5 5 8 9 10 10 13 15 16
17 16 14 13 18 25 28 29 28 28 28 28 25 24 26 29 34 42 49 47 45 44 42 44 40 39 34 21 11 6 17 18 8 20 30 27 29 29 25 20 18 17 14 14 15 12 7 6 7 7 7 4 3 3 1 4 2 2 1 6 5 5 6 3 3 4 2 3 4 5 5 4 2 1 5 5 1 2 5 5 4 7 8 9 8 10 15 17
17 15 14 12 15 22 28 29 24 22 26 28 26 23 21 24 31 42 54 51 49 47 44 44 41 40 30 18 12 6 15 21 13 23 31 29 32 30 27 22 20 21 16 12 10 10 14 17 15 9 4 3 4 3 1 3 1 2 3 7 7 5 6 3 4 6 2 2 6 7 3 3 2 2 5 3 2 1 5 5 4 6 6 7 8 8 11 14
15 14 13 12 12 17 25 29 24 20 23 25 28 27 21 20 24 37 57 55 50 50 46 45 42 38 26 12 9 7 16 20 18 27 30 29 31 27 25 23 21 22 19 13 9 14 22 24 18 8 2 6 6 2 2 3 2 2 3 4 8 8 8 5 4 4 3 3 5 6 2 3 3 6 5 2 0 3 5 5 4 6 5 5 6 6 8 12
14 13 13 12 11 14 20 27 26 21 23 26 30 30 24 20 19 27 51 55 50 51 47 46 44 36 22 7 6 11 18 21 23 29 29 29 26 20 22 23 21 20 19 16 14 19 23 21 17 9 4 7 4 3 3 4 2 2 2 1 5 7 7 5 3 1 3 3 4 4 3 5 8 9 4 0 2 6 5 4 5 5 4 4 5 5 6 10
13 12 12 12 11 13 16 23 26 23 24 25 29 30 25 20 18 23 42 54 50 51 49 46 44 33 16 4 5 13 21 23 26 30 30 27 22 15 17 20 19 18 17 18 20 21 20 19 18 11 3 2 4 5 4 3 2 1 1 0 1 2 5 5 2 2 3 2 2 4 3 6 8 9 4 2 3 6 6 6 6 6 4 4 5 6 6 9
12 12 12 11 11 12 15 18 22 23 24 24 27 29 25 19 20 24 34 54 53 50 51 46 38 25 9 1 5 17 24 22 25 32 32 30 24 16 14 19 18 18 18 19 22 21 20 19 15 8 1 1 4 5 3 2 3 2 1 2 1 1 4 7 3 5 4 1 1 3 3 6 8 7 4 2 3 5 6 6 5 7 6 5 5 6 6 7
12 13 12 11 10 11 14 15 16 19 22 24 24 28 25 20 22 22 24 47 55 52 49 35 28 20 7 4 10 19 20 17 24 30 31 32 28 21 22 24 19 19 20 20 24 22 18 13 6 3 3 2 3 5 3 1 2 3 1 2 1 1 3 6 4 3 3 1 0 2 2 4 4 4 5 2 3 4 5 6 5 7 8 6 6 6 6 6
13 13 11 10 10 8 11 12 13 15 17 23 23 25 24 19 20 17 17 38 51 53 49 34 32 19 3 8 15 16 14 17 26 27 27 28 29 31 29 20 16 21 21 18 20 16 9 5 1 1 3 2 3 5 3 3 2 2 1 1 2 1 2 4 4 3 2 1 3 4 4 6 6 4 4 2 3 4 5 6 4 6 7 6 6 6 6 6
12 12 11 9 8 7 9 10 11 12 13 20 22 23 24 20 17 13 19 38 45 41 36 29 30 15 3 13 17 16 19 23 26 25 26 27 28 33 27 15 15 21 18 10 8 5 3 2 1 2 2 2 4 5 5 4 4 4 3 3 3 3 3 4 5 3 3 1 3 4 6 10 11 10 5 1 4 5 6 5 4 5 5 5 5 5 6 7
11 11 10 8 7 6 7 8 8 9 10 15 18 18 18 16 13 13 19 26 28 21 14 14 19 10 7 17 16 19 26 29 26 23 27 28 27 27 24 21 16 14 12 6 3 2 2 3 2 4 4 5 6 7 8 6 7 8 6 5 3 3 3 4 5 4 2 2 5 6 7 10 11 12 7 2 3 5 5 4 5 5 4 5 5 5 7 7
9 9 9 7 6 5 6 7 6 6 8 13 16 14 12 9 7 8 12 11 13 12 10 20 22 6 9 16 18 24 28 29 22 19 27 29 28 25 17 15 10 5 8 8 6 3 3 5 5 6 7 9 10 9 8 7 9 9 5 4 4 2 3 3 4 5 0 1 6 5 7 10 10 12 8 3 3 3 5 6 7 6 5 6 7 8 9 9
8 7 7 6 5 4 4 5 6 5 5 11 14 8 6 9 7 5 6 9 10 4 8 25 19 4 14 21 25 29 20 17 15 15 27 29 27 22 8 9 10 5 6 9 8 3 2 7 8 7 11 13 12 9 9 9 9 9 6 4 2 1 2 5 5 5 1 1 5 2 5 10 11 12 7 3 3 5 8 8 8 9 8 7 7 10 10 8
8 6 6 6 5 4 2 2 5 6 4 7 11 5 2 12 13 6 4 6 8 2 8 21 13 7 17 23 31 35 15 8 13 12 21 23 17 13 6 8 10 7 7 9 7 4 3 7 7 9 10 10 8 9 10 9 8 7 5 4 2 1 2 5 4 4 3 1 5 4 3 9 11 12 8 5 7 8 8 9 9 9 9 8 10 11 9 8
7 6 5 5 5 4 3 2 4 6 7 7 11 8 4 12 21 9 3 1 5 3 9 19 14 10 16 19 31 36 17 11 14 12 20 20 10 8 9 10 10 8 10 11 9 7 4 4 9 10 10 11 8 8 9 6 5 5 5 5 3 2 2 2 2 4 2 2 3 5 5 8 9 9 8 8 9 7 5 8 8 7 9 10 9 9 9 10
5 4 3 3 3 4 4 4 4 7 11 11 13 14 4 9 26 18 2 2 4 4 5 13 14 13 13 18 31 30 16 12 13 16 23 18 10 9 9 10 11 9 7 10 10 7 4 4 10 12 11 13 10 9 10 6 4 3 4 5 4 4 4 3 3 6 5 1 2 4 6 7 7 7 9 6 5 5 5 6 7 7 9 7 5 7 10 11
4 3 3 3 3 5 5 5 7 9 11 11 12 17 12 8 20 19 3 3 3 5 1 8 7 10 15 20 26 20 12 8 8 16 22 19 16 11 8 6 7 9 9 10 10 5 3 4 9 12 10 12 11 9 10 8 5 1 3 5 6 6 5 3 4 5 4 3 1 1 4 6 4 5 9 5 2 5 4 5 9 10 8 6 6 9 10 10
3 3 4 4 4 4 4 3 6 9 8 8 10 16 17 11 14 18 5 3 3 4 3 7 6 14 20 17 17 15 12 4 2 13 18 20 18 8 8 5 1 8 12 9 6 2 3 4 7 12 11 11 10 8 9 10 6 1 5 8 8 7 5 3 4 2 0 4 2 3 4 6 6 6 8 4 4 8 5 5 9 9 7 7 9 10 9 10
3 3 5 6 6 9 6 1 6 10 5 6 11 14 16 14 14 18 7 4 4 2 3 2 1 14 19 17 19 16 11 8 7 9 11 16 14 3 7 10 3 7 8 6 3 1 6 8 6 9 10 10 9 7 8 10 7 2 6 12 12 10 8 6 2 1 2 4 4 3 3 4 7 7 4 1 3 8 7 7 9 8 8 9 10 11 11 11
3 4 5 6 9 12 9 3 5 7 3 3 9 13 13 16 16 15 5 6 2 3 3 2 1 8 11 18 22 10 10 17 14 9 8 11 9 3 6 10 10 13 7 6 7 1 6 12 11 11 10 8 8 7 11 11 5 2 5 9 10 9 7 6 5 3 2 2 6 5 3 2 7 6 3 1 4 8 8 8 9 10 11 11 12 12 12 11
4 5 6 6 8 12 13 11 5 3 4 4 9 14 18 20 15 7 2 5 2 2 2 1 3 6 11 18 16 9 12 13 8 7 6 5 2 3 6 7 12 15 5 3 7 1 2 8 11 12 9 7 4 5 12 11 4 2 6 7 4 5 4 5 4 2 1 2 9 6 4 4 7 4 2 2 4 7 8 7 8 10 10 11 11 12 12 10
6 7 8 7 8 12 14 17 16 8 6 7 14 20 22 17 8 3 5 4 2 2 0 2 4 8 17 17 8 11 15 7 7 11 5 1 3 5 5 5 8 11 6 6 6 2 1 2 4 5 5 6 5 5 6 7 5 5 6 7 6 5 4 3 2 3 2 5 7 3 5 4 6 4 5 5 5 7 7 6 7 8 8 9 10 11 11 8
8 8 9 10 12 14 12 9 17 20 12 9 19 23 16 7 3 6 7 1 3 3 2 4 6 8 17 18 10 13 17 9 11 15 7 3 4 6 8 5 3 5 5 5 4 2 3 4 2 1 1 5 8 5 3 3 5 6 4 5 5 3 3 3 3 2 3 6 3 3 2 5 6 6 4 5 6 6 7 7 9 11 10 10 9 8 8 6
6 7 10 12 15 17 13 2 4 18 19 13 17 15 6 4 5 4 4 4 4 4 3 6 11 10 13 16 13 14 17 13 13 17 13 9 8 9 10 8 6 5 5 5 4 3 3 2 2 1 0 5 10 7 3 4 3 5 5 5 4 2 2 0 1 1 4 5 1 2 2 4 9 7 5 8 7 8 9 8 10 11 11 10 8 6 6 4
6 6 9 13 17 20 18 7 1 7 16 16 12 8 4 5 5 3 4 4 3 4 5 8 13 16 14 12 11 13 15 12 14 16 14 12 11 8 4 6 8 4 4 7 6 3 2 2 2 3 1 3 9 9 5 3 3 5 7 6 5 3 2 4 3 1 5 5 3 3 2 4 7 4 9 14 11 10 10 9 10 9 9 10 6 5 5 5
8 7 9 13 18 21 21 17 8 9 17 16 7 5 7 7 3 4 5 4 1 4 6 10 16 19 15 11 12 14 10 9 15 14 11 11 11 7 4 8 9 3 7 9 4 6 7 1 5 8 4 5 10 9 8 9 7 6 6 5 6 6 4 5 5 4 4 3 3 2 2 4 4 2 8 11 8 8 6 7 8 7 9 8 5 5 6 7
9 9 10 12 16 19 21 21 15 13 16 12 5 5 8 8 3 3 4 4 4 5 6 10 16 17 11 8 12 11 6 8 17 13 10 12 12 11 10 12 12 6 9 10 3 6 9 3 4 5 5 11 12 5 5 9 6 2 1 2 3 5 4 3 3 3 1 0 2 3 3 5 3 5 8 5 6 8 7 7 6 8 10 6 6 8 8 8
10 10 10 12 15 19 22 21 18 16 12 8 6 7 6 4 3 3 5 5 6 11 12 9 9 10 8 5 8 8 7 7 17 12 8 11 11 13 12 10 10 9 11 10 3 4 6 1 1 3 3 11 10 6 8 8 6 2 2 4 3 2 5 4 1 1 4 2 3 3 6 6 3 8 10 6 6 8 7 7 7 11 10 5 7 9 8 7
9 8 7 10 17 21 22 21 20 17 10 4 7 8 3 1 2 2 6 8 8 14 15 9 4 4 6 4 6 12 11 9 12 9 7 8 7 11 13 10 11 13 12 8 2 4 6 3 1 2 6 7 2 7 8 4 5 7 6 7 4 2 2 3 1 1 2 4 4 2 7 5 2 6 6 4 8 9 8 8 9 10 8 7 10 10 7 6
7 6 6 13 21 22 21 23 22 15 6 3 9 11 3 0 3 3 4 9 11 12 12 9 4 3 6 7 8 16 18 13 11 9 9 8 6 11 17 12 11 14 11 5 3 3 5 4 2 0 5 2 2 6 6 3 1 4 5 8 6 2 3 3 3 2 3 4 3 3 4 4 6 6 4 3 9 10 10 8 7 9 9 9 10 9 6 5
7 4 5 14 24 24 24 24 18 10 5 5 10 10 3 1 5 5 5 10 13 12 10 7 4 4 6 9 13 18 18 16 15 12 11 10 6 11 19 11 9 15 10 4 4 4 4 5 1 1 2 3 1 4 7 5 1 2 2 6 3 0 3 4 3 2 3 4 3 3 3 3 7 6 4 6 8 9 10 8 7 9 9 7 7 6 6 5
5 4 3 12 22 27 30 23 12 6 6 8 8 6 3 2 6 6 9 9 10 7 7 7 7 7 8 9 12 15 12 13 16 11 8 10 4 6 16 12 10 15 9 5 5 5 3 4 4 1 1 5 4 5 9 10 7 4 6 8 5 1 1 1 2 2 3 3 3 2 3 5 5 4 8 10 9 10 10 9 8 7 5 5 6 6 6 5
4 4 3 12 25 33 29 14 7 6 6 9 9 5 3 3 7 10 12 11 4 0 2 7 9 8 10 12 12 12 9 10 14 8 4 8 6 3 11 12 13 15 10 5 5 5 2 3 6 5 3 4 3 3 5 8 9 7 7 9 9 6 3 3 5 3 3 3 4 3 5 8 5 4 7 9 9 7 4 5 6 5 5 7 6 5 6 6
4 6 5 18 34 36 23 6 5 7 7 8 7 4 5 4 6 12 14 9 3 2 2 3 5 6 9 12 13 12 10 10 13 10 3 6 7 3 8 13 16 16 11 6 5 4 4 5 6 4 4 4 3 4 2 4 6 5 3 6 8 7 6 6 6 3 2 2 2 3 3 7 4 5 6 7 7 5 3 3 6 7 6 7 7 6 5 5
6 7 7 27 44 36 15 6 8 9 8 8 7 6 6 5 5 9 13 11 4 1 3 3 3 6 6 8 11 13 11 8 10 8 2 3 3 2 10 17 18 16 9 7 7 4 4 5 5 4 2 1 3 4 2 1 3 6 6 5 6 6 8 5 3 3 3 4 3 2 5 6 3 2 4 5 5 6 6 6 7 9 7 6 7 6 5 5
5 4 5 29 50 35 12 8 10 10 8 8 10 9 5 4 7 9 11 13 8 4 6 6 5 5 4 6 12 15 12 7 6 4 3 4 1 2 14 20 19 16 8 7 9 5 3 3 5 6 4 1 2 1 2 2 4 6 5 5 5 6 6 3 1 2 1 6 7 5 8 8 4 2 3 5 5 6 8 6 6 7 7 6 6 6 5 4
4 4 4 19 35 26 11 10 12 12 11 9 10 13 9 4 7 11 12 11 8 7 8 6 5 5 5 7 8 9 8 4 5 5 2 4 1 1 13 23 21 15 7 7 9 6 4 5 6 8 8 7 6 6 6 5 4 2 3 8 11 10 10 6 2 3 6 8 8 7 11 8 4 2 4 7 6 6 8 5 4 5 6 6 6 6 5 4
3 5 5 8 14 14 10 11 14 13 13 12 9 10 13 9 6 10 13 8 3 3 5 4 6 7 6 10 9 7 6 2 4 7 4 6 3 1 10 20 18 13 11 13 11 6 4 5 7 10 12 12 9 6 6 10 9 9 11 14 15 12 12 7 4 7 10 5 6 13 14 8 6 5 5 6 6 6 7 5 4 5 5 6 6 7 6 4
4 5 7 7 7 10 11 11 13 12 13 15 10 7 13 14 9 9 12 6 4 1 3 4 9 10 11 15 12 10 9 4 5 10 8 6 4 2 8 14 13 14 15 14 11 7 5 6 10 13 12 7 5 5 9 14 15 16 14 15 15 14 14 11 10 15 8 4 8 15 12 12 12 7 7 9 6 5 6 6 5 4 5 6 6 6 6 5
5 5 8 10 8 10 12 12 14 13 15 15 10 9 15 16 13 11 10 3 4 4 4 4 10 14 16 18 13 10 11 5 4 9 8 6 6 6 8 8 9 16 17 12 9 6 6 9 13 14 9 3 5 6 11 12 10 11 14 15 16 17 18 18 20 20 9 6 14 9 9 15 12 6 9 11 6 5 5 4 5 5 6 7 7 7 7 6
5 4 7 9 8 13 16 16 17 16 17 15 8 10 15 16 16 14 10 7 3 7 7 8 14 17 16 17 13 10 13 10 8 11 11 11 11 11 11 6 6 11 13 11 9 3 3 5 7 10 7 4 5 3 8 10 6 6 11 13 14 18 22 23 25 22 12 13 17 6 6 14 8 6 11 9 5 5 3 2 5 6 7 6 6 8 8 7
5 5 7 5 4 13 18 17 18 16 15 15 9 9 13 15 17 13 10 12 12 11 11 14 18 19 18 19 16 16 22 21 18 17 15 15 12 10 10 5 3 7 8 7 6 1 2 2 2 6 6 4 6 4 4 7 8 7 9 11 14 17 20 21 22 17 12 17 21 10 8 14 8 8 9 6 5 5 4 5 8 8 7 6 6 8 8 8
8 7 11 8 5 13 16 14 17 16 12 13 12 10 13 16 18 14 9 12 15 14 17 19 21 18 16 19 21 20 20 15 11 12 15 15 12 9 6 4 8 11 7 5 4 2 3 2 2 6 6 1 3 5 6 5 5 4 8 15 18 17 16 17 16 15 16 20 19 11 12 15 9 8 7 7 8 8 9 10 10 9 7 7 8 10 9 8
10 9 12 11 8 13 15 11 15 15 11 13 14 13 15 17 18 15 9 7 7 7 9 14 17 15 15 21 23 16 10 9 9 10 11 9 8 6 5 9 15 15 9 6 4 2 5 4 2 5 6 2 2 4 7 7 5 3 11 17 20 17 14 15 15 17 20 18 13 12 15 11 5 8 9 9 10 12 13 12 10 11 8 7 9 11 9 9
Wind_Direction
217 220 222 224 220 216 220 227 225 225 226 217 213 216 210 204 203 202 200 199 198 197 196 196 197 196 195 192 186 178 170 165 162 169 177 186 190 185 181 181 174 174 176 176 174 159 123 71 80 73 18 15 15 348 353 356 42 50 73 100 152 173 199 184 182 200 172 312 256 211 208 166 182 201 177 102 48 42 101 261 302 308 281 234 285 178 160 160
214 216 219 221 219 216 217 223 224 222 223 218 214 216 211 203 202 201 199 198 197 196 196 195 197 197 196 196 192 186 178 168 163 179 184 180 181 177 171 173 168 166 171 169 168 152 121 96 90 81 51 30 13 344 344 350 32 74 106 100 203 200 223 194 185 206 181 331 301 182 201 193 199 169 153 192 280 45 138 252 331 322 276 294 115 148 157 159
210 213 217 218 216 216 215 218 223 219 218 223 219 216 212 206 202 200 199 198 196 195 194 194 195 194 194 194 193 191 179 154 165 205 188 171 164 173 168 168 163 159 168 171 171 158 136 121 99 88 64 44 39 334 358 5 23 113 109 88 232 217 267 237 208 238 224 327 350 192 139 214 227 158 160 183 176 124 201 221 194 224 224 170 147 153 159 162
206 208 213 214 214 216 213 215 221 218 216 222 224 219 214 210 204 198 197 197 195 194 193 192 192 191 192 190 190 188 164 101 234 206 187 170 160 168 166 165 164 163 171 168 161 148 134 119 94 78 84 57 359 6 25 355 6 31 126 146 252 276 334 297 246 275 269 253 80 128 111 232 236 169 185 153 142 245 237 219 201 210 191 167 164 163 166 167
203 203 206 208 211 213 211 212 216 216 219 221 222 223 219 214 206 198 196 195 194 193 191 190 189 189 188 187 188 177 146 77 215 196 190 177 166 166 163 161 163 170 167 155 144 133 129 123 99 63 68 75 9 30 20 335 13 339 211 123 332 48 344 303 326 302 284 318 93 114 163 209 178 194 191 164 186 232 230 217 209 206 171 168 167 166 171 171
202 201 200 202 208 212 210 210 210 211 220 222 220 223 225 218 205 197 195 194 192 191 190 188 187 186 184 184 183 170 159 193 183 185 192 182 169 160 158 156 157 167 160 148 140 130 123 122 119 101 77 83 85 103 42 325 1 295 309 16 38 78 304 288 331 295 250 216 174 181 212 161 155 248 201 183 213 209 212 227 212 199 164 163 162 165 172 174
201 198 197 199 205 210 210 209 209 212 219 221 220 222 226 220 205 197 192 191 192 190 187 186 184 181 177 173 173 174 186 226 182 181 187 186 177 161 156 151 148 158 153 141 134 129 125 128 137 125 115 117 145 141 124 285 354 193 261 341 334 340 285 275 300 288 232 211 229 209 190 163 191 229 116 211 228 202 279 275 208 176 155 155 161 172 180 180
199 194 198 202 204 207 208 209 213 216 216 214 219 222 224 222 210 201 194 191 191 188 185 184 181 177 172 164 162 182 205 216 223 179 181 183 174 161 161 153 149 154 145 141 137 135 126 126 143 136 136 145 148 137 134 243 174 127 248 315 323 307 292 292 297 286 246 231 249 161 219 233 204 181 145 232 236 227 287 11 147 146 146 157 168 178 183 183
197 190 197 204 203 203 204 206 211 214 214 214 220 224 225 224 215 203 195 192 189 186 183 180 178 174 171 164 156 188 200 199 194 171 174 175 165 161 164 159 164 163 141 141 142 137 125 133 163 153 144 143 142 120 118 215 190 168 236 292 307 314 308 312 309 284 247 242 191 175 248 275 238 190 259 248 235 211 124 82 124 136 151 170 174 181 184 184
192 185 192 200 199 201 200 201 204 205 210 218 222 226 226 226 222 205 193 190 187 183 180 178 175 170 169 163 158 193 193 190 181 166 170 171 164 165 170 169 172 166 145 139 138 132 127 145 151 127 114 110 138 115 134 193 182 174 271 292 281 299 297 295 301 286 274 250 190 189 254 286 296 283 253 263 295 175 117 104 144 149 168 180 179 186 185 188
188 185 188 194 198 199 200 202 201 194 197 209 215 223 227 228 231 211 194 189 186 182 180 177 173 171 170 165 177 192 179 179 169 166 171 171 167 170 176 176 173 164 149 134 135 139 135 136 132 118 110 117 135 128 214 174 92 332 343 306 283 312 305 274 280 273 239 242 191 174 242 285 322 265 230 249 355 153 136 139 164 170 183 183 184 188 188 194
185 188 186 187 195 196 201 205 204 196 192 201 211 221 230 228 237 215 191 185 183 180 179 177 174 173 166 169 199 182 170 172 164 167 171 167 165 170 175 174 174 170 156 132 132 148 141 139 129 103 135 146 134 146 200 139 86 332 23 323 300 334 325 295 289 257 177 206 185 161 267 282 222 228 233 257 40 98 123 155 180 190 192 185 187 189 194 198
188 190 186 187 192 191 197 204 208 206 198 202 212 221 228 223 241 220 187 179 180 178 176 176 173 170 164 173 198 174 172 167 164 169 168 166 163 164 173 171 171 176 170 149 142 148 146 144 127 97 119 134 127 146 129 97 71 321 59 33 310 331 313 298 331 317 162 183 180 168 267 269 235 236 239 249 148 116 130 186 197 203 196 189 194 193 200 198
190 191 186 186 190 190 190 197 207 209 200 202 210 218 226 221 238 231 189 177 178 176 174 173 169 165 165 171 156 170 173 164 166 168 165 166 154 137 159 168 165 171 174 156 144 145 145 138 118 101 91 99 129 131 82 39 44 67 136 186 319 299 283 298 347 114 162 199 166 165 237 271 264 257 250 229 183 151 178 206 198 207 204 196 198 197 206 205
186 188 180 180 184 193 187 187 201 208 204 201 205 214 220 219 232 244 203 179 176 175 168 166 167 160 154 190 158 167 167 162 166 167 168 167 150 127 140 155 157 160 161 151 143 139 135 127 109 101 101 21 121 116 60 21 41 58 209 259 13 182 283 307 295 171 183 301 61 159 216 272 278 278 291 267 199 180 200 212 204 211 210 206 203 203 212 213
182 184 177 173 175 192 191 186 193 202 209 204 205 212 216 221 225 245 221 179 170 168 160 160 169 163 150 167 159 161 161 165 168 164 168 169 156 136 127 132 131 135 140 135 134 130 120 113 93 102 120 84 117 107 78 60 25 29 211 241 345 345 314 319 304 216 194 101 273 224 229 275 280 291 329 345 181 191 217 222 211 213 218 214 205 207 213 214
181 186 181 173 170 185 190 190 190 192 209 207 204 209 212 222 215 236 232 177 164 162 159 161 168 164 144 144 150 163 163 164 165 157 159 166 157 139 127 119 113 116 115 113 122 120 94 81 92 124 80 84 137 124 142 210 213 39 47 198 236 248 293 304 307 331 3 104 206 228 231 249 259 269 314 7 159 182 230 238 231 226 226 224 215 214 215 212
184 191 191 186 180 185 187 190 191 190 205 205 203 204 205 215 213 240 228 178 159 159 165 162 161 161 201 172 162 167 161 156 159 153 150 157 155 144 134 125 124 119 109 100 108 95 53 46 104 126 90 135 145 151 183 202 190 170 168 184 216 218 222 264 279 321 352 314 226 211 232 252 264 269 265 189 159 181 223 240 247 245 235 237 232 224 224 219
183 192 193 198 194 197 197 189 188 189 200 201 197 192 191 202 212 249 240 187 159 164 170 153 164 176 182 178 166 152 156 153 152 150 145 145 146 138 128 127 129 125 125 132 131 129 132 93 104 159 155 160 161 182 190 177 169 168 173 172 173 209 229 243 262 289 321 290 255 218 232 249 256 261 250 196 159 185 228 248 247 249 240 242 240 233 234 225
178 183 185 193 197 212 211 201 196 185 199 200 187 173 169 179 191 230 251 227 190 176 150 158 175 180 131 153 146 139 150 152 147 150 150 147 138 124 120 130 121 121 147 147 144 154 149 150 190 182 159 165 176 187 176 155 150 140 137 160 157 181 275 269 264 282 34 249 261 230 240 255 255 261 253 174 145 201 233 242 241 243 235 231 231 234 234 229
176 173 180 191 202 220 216 217 212 189 206 209 194 176 161 175 178 185 213 245 233 193 150 166 164 108 133 146 143 137 138 147 145 151 154 149 137 125 134 151 134 150 156 132 126 106 158 187 195 170 160 171 177 164 139 136 140 130 132 155 150 144 278 276 270 286 345 193 266 279 261 263 262 264 257 153 174 228 221 225 231 230 232 231 230 234 234 238
183 176 175 187 208 216 214 235 218 207 214 209 206 224 235 186 174 139 145 228 254 260 162 161 135 85 135 138 141 139 125 132 143 154 158 154 148 143 168 163 146 153 138 123 121 122 182 201 174 154 158 158 153 142 139 145 145 135 130 134 170 178 298 287 291 332 5 208 272 318 284 265 264 260 251 192 209 235 218 218 224 215 220 226 227 232 233 239
185 182 174 189 218 225 226 236 220 222 213 201 203 211 276 209 193 183 116 190 282 273 166 160 144 134 138 138 148 147 140 150 150 167 171 164 162 151 153 158 147 139 144 150 155 156 177 188 154 147 147 139 141 160 161 160 151 143 141 145 182 139 97 274 314 353 338 195 258 312 306 273 267 264 259 222 219 245 231 223 232 214 216 225 225 228 224 228
180 181 183 181 215 232 240 243 232 227 219 222 222 213 235 208 197 196 96 36 291 306 175 163 151 151 148 148 158 155 148 155 155 167 173 168 151 142 149 152 140 137 158 156 149 150 142 152 154 148 150 149 150 169 169 174 188 171 167 166 166 151 158 214 304 332 314 261 235 301 310 277 259 258 261 242 215 252 252 231 247 241 231 238 242 232 223 224
181 188 193 170 196 225 238 248 232 226 224 232 238 226 219 195 190 186 118 12 253 310 252 158 146 157 147 144 159 155 130 143 158 161 170 164 148 144 146 146 142 150 157 143 137 143 136 162 158 146 151 153 151 171 176 175 176 202 212 180 158 162 170 218 303 344 341 316 298 289 284 271 278 262 250 249 220 243 237 216 239 245 237 234 237 236 229 228
188 197 196 191 190 190 213 251 218 210 218 230 235 227 216 198 172 168 157 337 235 280 227 165 161 162 151 147 157 139 122 140 127 149 164 161 153 146 145 150 63 150 152 138 134 152 146 164 160 154 158 156 158 178 182 168 151 210 203 167 160 165 158 207 277 343 208 271 271 149 228 271 301 273 243 234 237 247 250 237 245 250 242 225 226 234 229 228
206 217 197 197 191 176 183 196 178 181 190 239 224 214 214 204 160 140 139 284 241 216 205 205 189 165 160 158 155 142 146 150 120 151 172 160 156 126 149 160 131 148 155 137 156 210 147 151 160 160 156 161 174 183 183 170 152 220 192 166 173 178 175 186 200 230 230 285 289 195 184 267 278 265 255 187 240 261 268 261 258 252 242 233 231 234 229 225
229 244 215 204 200 191 191 176 161 168 170 260 208 194 195 186 156 126 134 246 211 121 201 282 88 156 154 158 158 144 137 139 138 173 183 162 159 84 149 169 148 148 159 161 178 248 145 165 175 165 159 178 188 174 174 165 146 229 186 166 176 171 169 156 132 210 249 330 278 245 147 236 259 268 335 19 233 253 260 255 253 246 238 235 236 237 234 231
249 257 249 228 215 210 214 225 220 137 135 197 200 184 168 156 144 114 181 224 135 70 264 232 138 156 150 156 161 134 129 140 140 148 153 168 175 80 143 165 137 133 116 126 157 173 185 182 173 162 168 185 163 141 167 160 127 184 143 116 104 98 105 110 126 171 83 266 254 236 173 233 260 252 275 289 234 238 248 252 249 243 239 237 238 240 239 237
258 260 263 241 222 217 217 229 230 198 143 179 184 168 156 148 140 174 211 208 117 105 255 159 167 171 156 151 150 136 136 135 120 124 130 171 72 70 99 97 111 120 79 60 105 158 234 96 136 152 172 167 117 89 150 149 131 139 117 86 72 57 59 76 95 96 94 257 261 240 186 215 277 247 198 221 218 205 219 242 254 254 250 241 236 237 238 236
265 259 255 230 218 215 208 229 229 218 219 196 168 156 151 155 177 203 203 170 98 142 183 168 163 170 160 149 141 142 133 122 133 136 145 155 114 114 120 107 84 99 91 77 77 57 66 85 135 167 152 135 110 85 56 84 126 130 112 106 100 33 27 35 10 71 200 244 291 330 162 168 247 248 201 239 239 211 211 218 233 241 243 241 235 236 240 240
278 256 244 228 222 217 207 201 230 221 225 199 158 149 158 195 192 199 180 137 155 176 176 167 160 166 164 147 139 143 135 135 151 149 151 155 148 150 153 164 159 129 148 152 117 77 67 116 167 83 236 156 128 116 45 24 71 100 108 120 113 33 30 310 283 170 234 243 268 295 154 186 245 245 236 257 255 236 227 217 223 231 239 242 238 237 242 242
295 262 239 229 226 221 213 201 100 206 203 187 169 161 182 220 208 167 149 164 186 159 152 166 163 161 162 149 136 135 130 137 155 156 153 150 152 152 128 152 156 129 146 146 122 118 76 342 201 144 243 197 153 144 147 156 144 141 147 147 149 139 147 204 203 218 251 245 227 207 168 246 271 256 229 234 235 232 225 224 230 232 241 248 247 245 253 255
295 266 242 232 228 226 221 215 211 180 169 171 193 189 183 221 233 123 152 190 155 112 143 161 161 163 164 156 147 138 124 141 154 150 146 147 157 161 136 165 172 112 117 139 134 159 155 231 207 177 176 186 177 171 158 154 158 168 164 156 168 171 175 192 188 212 237 250 261 231 175 216 224 266 241 230 249 263 243 237 240 246 252 254 269 270 259 258
288 271 252 237 232 230 224 217 214 193 167 164 217 221 197 209 207 135 159 165 134 126 144 159 159 161 160 154 155 136 93 154 156 145 155 161 167 172 167 179 185 149 139 156 161 167 169 205 203 173 168 170 174 177 129 129 141 194 126 125 191 186 150 134 182 200 164 5 264 221 229 222 203 283 280 256 278 283 260 250 247 254 255 249 265 264 250 250
288 283 260 230 223 227 222 211 205 201 183 169 210 230 225 206 187 170 157 156 162 147 142 157 166 161 153 153 158 124 67 144 155 147 166 168 171 178 172 176 185 175 162 155 127 162 167 159 30 66 139 174 174 160 154 150 146 139 169 183 196 159 111 109 194 61 75 223 242 193 243 279 322 284 276 259 266 279 269 254 238 244 251 249 256 255 249 252
283 275 253 219 216 219 216 205 197 197 190 177 215 226 242 229 225 209 160 157 160 151 147 157 180 172 155 140 143 135 116 131 156 155 160 166 180 182 174 178 184 184 177 153 110 190 153 95 329 97 149 194 202 137 164 194 143 141 187 185 136 68 84 115 176 44 84 232 266 215 235 265 275 264 288 271 249 264 267 249 238 244 246 245 249 252 255 254
272 253 243 230 222 213 204 198 191 188 183 191 222 220 212 208 231 241 184 156 152 159 160 160 166 179 172 154 142 146 142 145 168 167 157 172 203 184 178 184 183 185 185 140 97 178 136 96 330 330 150 199 1 125 165 266 148 143 180 166 136 151 208 163 160 179 189 225 275 284 256 247 214 235 306 263 231 242 255 254 247 244 236 237 248 257 264 252
258 248 247 231 222 204 189 188 182 181 194 198 219 219 184 158 207 228 217 168 157 167 169 170 180 175 183 168 149 155 158 159 168 169 167 182 207 187 182 179 174 184 183 118 121 162 128 111 120 317 147 149 125 167 181 192 159 54 136 169 162 84 191 178 166 164 177 206 251 300 313 259 225 216 216 233 234 234 249 264 256 245 243 246 257 265 265 253
228 241 229 212 209 189 175 177 175 185 206 202 219 214 133 171 190 211 240 200 166 172 176 179 182 163 167 164 150 159 162 159 168 173 174 177 173 193 189 176 162 172 159 96 130 150 112 109 133 123 134 155 179 206 189 175 166 157 165 182 193 170 134 173 186 146 132 169 206 263 279 260 244 204 196 215 228 224 231 247 249 254 272 267 262 265 268 262
197 243 209 189 191 173 162 169 185 188 205 210 219 202 148 217 176 178 226 229 200 253 156 169 174 160 155 155 157 166 156 153 174 178 174 176 165 190 192 172 154 157 147 111 140 152 108 104 133 140 164 179 206 231 186 181 184 175 171 184 189 181 145 168 212 194 124 167 177 179 259 265 245 205 205 215 228 234 242 266 271 284 288 271 265 257 257 261
219 242 192 178 177 163 155 179 188 181 209 208 199 160 152 209 183 174 197 221 267 345 69 129 152 153 161 160 160 166 155 157 179 182 184 181 173 169 168 152 145 153 151 129 140 147 105 101 112 126 177 200 260 281 234 200 196 187 201 192 177 181 183 188 212 198 141 203 164 133 265 277 240 193 212 234 262 291 292 278 284 284 268 267 277 271 260 265
230 235 196 177 171 160 158 194 178 188 210 187 174 160 146 164 185 185 187 188 217 240 139 118 132 161 183 165 155 160 154 157 176 174 113 130 163 167 147 141 143 153 148 130 147 144 95 101 106 105 140 274 308 290 318 45 175 206 230 195 153 190 202 186 179 159 167 216 196 193 256 274 277 195 211 238 277 294 272 251 262 276 281 274 274 282 276 269
227 235 213 178 170 163 171 189 176 190 193 174 182 175 141 148 178 189 194 186 188 185 160 158 164 170 177 163 162 164 158 152 166 160 103 127 164 151 145 145 152 161 159 151 161 157 106 124 129 121 127 31 347 274 238 229 202 207 212 174 165 183 163 136 134 116 229 214 178 198 243 249 275 307 275 265 269 276 271 251 226 248 278 284 279 290 283 270
233 218 216 178 169 167 186 188 175 182 175 167 181 174 159 170 181 187 202 200 193 180 165 161 152 129 132 151 154 157 158 147 154 158 113 119 87 93 153 156 162 168 158 138 141 129 125 149 147 138 153 182 193 196 202 193 177 189 169 175 192 184 161 171 157 139 234 215 164 196 237 250 298 297 263 279 287 275 271 273 254 250 271 285 288 291 280 265
243 207 193 179 170 175 192 187 180 181 170 163 173 175 173 178 183 192 201 215 245 174 147 129 118 100 123 150 144 161 176 55 102 146 133 135 137 302 171 164 164 164 149 140 135 106 107 163 181 176 178 186 188 181 142 126 145 193 191 184 193 190 178 173 143 194 222 198 180 224 234 254 280 245 238 277 282 268 269 271 264 260 272 282 280 279 276 260
231 221 194 173 164 180 187 185 186 182 169 170 173 167 175 179 177 185 192 212 302 224 137 133 146 145 159 161 155 172 171 74 91 146 143 141 122 70 167 166 162 161 153 152 153 123 118 184 199 192 190 180 156 145 136 143 171 191 183 182 189 187 184 184 202 218 201 126 229 234 223 237 247 228 246 268 253 246 274 280 268 270 286 289 283 282 283 275
225 236 204 183 164 174 181 180 183 178 170 175 173 161 175 181 176 176 176 170 304 239 160 139 170 170 168 166 160 165 162 120 117 153 146 149 135 120 157 176 179 170 161 165 180 154 148 192 195 185 184 131 105 145 154 158 177 180 173 184 186 184 188 196 216 223 185 181 237 217 180 226 233 188 229 253 243 221 236 261 284 302 299 297 305 303 295 286
221 224 210 202 175 167 170 170 174 176 174 174 172 171 175 176 177 179 165 139 213 231 186 164 180 177 169 167 158 155 168 168 171 177 169 159 153 146 155 175 210 186 167 171 191 175 141 192 185 163 153 62 50 133 157 150 143 157 179 188 183 187 195 201 218 223 204 227 244 213 192 243 237 184 223 241 244 246 255 278 284 290 285 288 301 297 290 282
216 196 185 194 178 166 165 168 171 174 176 173 174 176 170 171 178 178 167 161 171 196 196 181 179 176 172 172 170 179 188 186 181 180 166 152 154 161 163 162 175 175 166 171 194 309 51 160 134 121 116 34 15 33 95 139 151 165 190 196 191 197 203 208 220 220 210 237 244 238 267 270 241 206 236 247 240 265 310 289 271 268 264 267 273 272 274 275
216 223 190 163 156 169 166 169 171 170 177 180 177 171 167 174 178 171 177 184 173 180 194 187 176 172 173 181 191 196 190 175 158 157 154 152 155 161 166 158 151 154 151 158 171 49 63 90 51 100 119 329 348 67 74 96 128 165 214 211 201 200 205 212 219 210 206 227 233 230 256 260 224 189 219 246 249 259 265 261 260 252 228 222 247 257 259 261
204 238 208 165 148 169 168 169 172 171 177 180 174 171 173 176 176 169 172 202 209 206 195 178 169 167 175 190 198 190 153 123 116 130 138 135 126 119 126 144 152 153 146 142 145 102 117 123 94 124 141 242 284 119 111 100 92 253 239 214 199 200 208 215 221 217 212 217 217 217 233 237 172 160 193 216 231 246 255 260 266 265 239 215 237 253 255 249